Wind_Speed
19 18 17 16 17 19 21 23 24 25 26 24 22 20 19 19 18 18 16 13 14 19 24 22 20 16 17 21 18 20 18 14
24 23 23 18 17 20 21 24 26 25 24 24 23 25 23 21 22 21 19 18 14 18 17 22 25 27 21 21 23 25 24 16
30 28 27 22 21 22 21 23 27 31 28 28 25 22 24 27 23 22 23 23 20 17 15 21 23 27 30 29 28 36 39 28
34 30 31 28 26 24 21 21 25 31 34 31 30 26 22 22 25 25 25 23 22 19 18 17 17 20 24 28 29 33 37 35
38 35 36 35 32 25 23 23 25 30 35 35 36 33 30 24 22 23 28 26 24 23 22 19 17 16 16 20 25 28 31 34
42 47 43 38 35 31 30 30 29 29 33 35 39 40 37 35 27 22 27 29 28 26 26 25 24 20 19 21 22 25 30 32
51 53 47 44 40 38 36 35 33 32 33 37 38 41 43 42 39 30 25 32 30 30 30 27 27 28 25 28 29 29 30 32
57 58 54 51 45 44 40 40 39 37 36 40 43 43 42 47 48 42 34 34 34 32 32 32 30 29 31 32 34 34 36 34
61 63 62 52 49 50 47 44 45 42 42 44 45 44 47 49 53 51 47 42 39 38 36 34 33 34 32 33 35 36 37 39
66 67 61 51 59 54 50 49 49 46 47 47 47 47 48 51 56 56 53 52 49 43 42 40 36 33 38 40 41 41 40 40
71 69 63 61 60 58 54 52 52 51 52 51 51 51 50 54 61 60 57 56 57 54 48 46 41 39 40 44 46 46 45 47
77 75 67 62 66 66 61 51 55 58 54 55 56 54 55 60 63 62 63 60 61 61 58 54 52 49 48 45 49 51 50 50
83 80 71 68 70 69 66 56 62 60 59 58 59 57 60 60 63 64 63 63 62 62 63 61 60 58 56 56 51 52 53 55
86 83 75 73 75 73 70 67 64 62 61 61 60 60 61 63 64 66 67 66 66 65 64 63 64 63 63 62 59 56 55 58
90 86 80 79 78 76 73 69 69 65 65 66 65 65 65 66 68 69 70 68 66 66 65 66 67 69 68 64 65 63 62 60
91 88 85 82 81 79 77 74 74 74 71 71 71 71 71 71 71 70 69 69 70 70 71 72 72 74 73 72 66 67 65 63
92 89 86 85 83 82 79 76 75 76 76 74 73 73 71 71 72 73 74 73 73 74 76 78 79 78 75 72 73 73 70 69
87 86 84 82 82 79 76 75 75 75 73 73 75 75 74 74 75 76 78 77 78 75 77 78 81 79 85 85 83 81 80 80
81 81 81 80 79 77 77 77 76 76 76 76 77 77 77 77 79 79 83 73 82 78 80 85 89 89 90 87 83 86 85 84
Wind_Direction
275 278 283 297 310 319 328 339 344 341 342 345 345 350 355 350 346 338 338 323 301 281 284 285 278 282 265 242 259 257 226 231
267 268 274 284 294 303 315 323 327 330 332 335 337 342 343 345 338 335 334 330 315 279 270 267 273 277 268 245 239 253 240 241
260 263 272 277 279 285 300 317 315 317 325 324 328 333 335 334 332 328 325 323 322 314 284 273 261 261 264 254 231 248 259 269
257 264 267 270 273 279 290 304 305 308 315 318 317 319 320 320 321 320 311 312 315 311 309 282 257 258 258 263 265 258 263 262
256 260 261 262 266 276 279 284 293 298 304 308 308 309 309 307 307 310 307 305 306 308 305 307 287 269 271 268 267 264 263 266
253 253 259 263 267 268 271 278 283 292 294 297 300 301 302 302 301 300 303 301 301 302 301 305 304 292 287 286 279 274 270 276
249 253 256 260 265 267 271 275 282 285 287 286 287 291 296 297 299 299 296 296 295 296 298 299 301 302 301 300 295 288 281 276
249 252 254 257 262 267 268 270 273 277 280 275 277 284 287 290 292 296 296 294 293 292 294 295 296 297 298 301 301 298 295 288
247 250 253 256 263 262 263 266 268 272 273 276 277 277 279 285 287 291 295 294 294 295 293 293 296 298 295 291 288 287 290 291
244 248 254 256 257 260 262 264 265 269 270 271 273 275 278 281 284 287 291 295 295 295 294 293 291 293 295 293 292 289 283 284
246 249 250 253 260 262 263 264 266 266 268 269 270 271 274 276 278 285 288 290 293 294 294 294 294 292 291 291 291 289 290 290
247 248 249 253 256 261 263 265 266 264 266 269 271 274 272 273 279 282 285 288 291 293 295 299 299 297 295 293 290 290 289 291
246 248 249 250 255 258 262 261 262 267 268 269 271 272 272 275 277 280 281 282 284 285 290 295 295 294 292 290 288 287 288 288
246 249 250 251 254 256 258 259 261 264 268 270 270 269 271 273 274 275 277 280 282 285 288 289 289 290 289 288 287 285 286 287
246 249 249 251 254 256 259 261 263 263 264 265 266 268 269 271 273 275 279 282 285 286 287 287 286 286 286 287 287 287 284 283
245 248 249 251 254 257 260 262 264 265 264 266 267 269 272 273 277 280 282 283 284 285 284 283 283 284 284 287 284 286 286 284
245 246 249 251 254 257 260 263 265 268 272 272 273 274 276 276 278 279 279 279 280 282 283 283 283 283 286 291 292 291 291 293
245 248 250 253 256 258 261 263 265 266 266 270 274 275 275 277 278 279 280 281 283 285 288 288 291 292 292 291 291 293 293 291
245 248 251 253 254 256 257 259 261 263 264 265 266 269 273 276 278 282 283 279 286 285 284 283 284 281 285 288 287 286 288 288
Height
11015 11015 11015 11015 11013 11011 11008 11006 11004 11003 11002 11000 10998 10996 10994 10992 10990 10989 10987 10987 10985 10984 10982 10981 10981 10983 10984 10981 10979 10977 10980 10980
11008 11009 11009 11011 11010 11008 11006 11003 11001 11001 11001 10999 10996 10992 10991 10990 10988 10986 10984 10984 10984 10983 10980 10977 10975 10977 10978 10977 10974 10973 10977 10979
11000 11002 11003 11005 11005 11004 11003 11000 10996 10993 10995 10994 10993 10992 10989 10986 10985 10984 10981 10981 10980 10979 10977 10974 10971 10971 10970 10970 10969 10967 10971 10972
10991 10995 10995 10997 10998 11000 11000 10998 10993 10989 10987 10987 10987 10987 10988 10987 10982 10981 10980 10979 10977 10976 10973 10970 10968 10966 10965 10963 10962 10961 10959 10961
10982 10986 10985 10987 10990 10994 10995 10994 10992 10987 10981 10980 10979 10980 10980 10982 10981 10979 10975 10974 10972 10970 10969 10967 10965 10961 10960 10959 10958 10957 10955 10952
10973 10969 10974 10979 10982 10986 10987 10988 10987 10986 10981 10976 10971 10971 10971 10972 10973 10974 10971 10967 10966 10964 10962 10960 10958 10955 10953 10951 10950 10948 10946 10944
10957 10956 10964 10968 10973 10976 10979 10980 10981 10979 10977 10972 10969 10964 10961 10961 10962 10964 10966 10961 10958 10958 10956 10954 10952 10948 10945 10942 10940 10940 10938 10936
10942 10943 10950 10957 10963 10965 10968 10969 10970 10971 10971 10965 10961 10960 10957 10951 10951 10952 10955 10954 10950 10950 10949 10947 10946 10943 10939 10936 10934 10932 10930 10928
10930 10929 10932 10948 10952 10951 10954 10958 10959 10961 10958 10955 10952 10951 10946 10944 10939 10941 10941 10943 10942 10941 10941 10940 10937 10933 10932 10931 10929 10926 10922 10917
10913 10913 10922 10939 10930 10938 10943 10946 10947 10950 10946 10943 10942 10941 10938 10934 10928 10929 10930 10929 10930 10930 10929 10929 10928 10926 10922 10918 10915 10912 10910 10906
10896 10902 10913 10918 10919 10922 10928 10932 10934 10935 10932 10932 10930 10930 10929 10924 10917 10917 10919 10919 10916 10916 10917 10916 10915 10915 10913 10909 10905 10902 10899 10895
10878 10885 10899 10907 10902 10904 10911 10925 10918 10915 10920 10920 10919 10923 10918 10910 10907 10907 10904 10905 10902 10900 10903 10902 10900 10901 10899 10897 10894 10890 10887 10882
10857 10866 10884 10892 10890 10892 10896 10909 10899 10903 10904 10906 10906 10908 10903 10902 10897 10895 10895 10895 10894 10893 10890 10889 10888 10886 10884 10880 10879 10878 10876 10872
10843 10850 10869 10874 10872 10875 10882 10886 10888 10889 10889 10889 10891 10893 10892 10888 10887 10884 10882 10882 10881 10881 10879 10877 10874 10872 10870 10868 10868 10865 10862 10861
10826 10838 10850 10854 10855 10858 10864 10871 10871 10876 10875 10874 10875 10876 10877 10876 10872 10870 10869 10870 10869 10867 10863 10860 10856 10852 10851 10851 10851 10850 10847 10846
10810 10819 10829 10835 10838 10842 10848 10853 10854 10855 10858 10858 10859 10859 10861 10861 10859 10857 10856 10855 10851 10848 10844 10841 10838 10834 10832 10832 10829 10827 10822 10821
10793 10804 10812 10818 10824 10827 10832 10837 10840 10838 10837 10841 10844 10844 10845 10844 10841 10839 10837 10835 10832 10829 10825 10822 10818 10813 10811 10809 10806 10803 10800 10799
10782 10790 10798 10804 10808 10813 10819 10820 10821 10823 10826 10824 10821 10822 10824 10823 10822 10818 10815 10813 10811 10808 10801 10797 10795 10791 10787 10785 10782 10780 10778 10775
10770 10776 10781 10787 10791 10797 10799 10800 10802 10803 10804 10807 10807 10806 10804 10802 10799 10799 10793 10792 10787 10789 10785 10780 10775 10773 10768 10764 10761 10759 10755 10751